Retour au catalogue

STARLINK-30250

ActifCommunicationsVLEO
NORAD 57527·PAYLOAD·🇺🇸 United States

Lancé Aug 8, 2023 depuis Vandenberg Space Force Base

Loading…

Prochains Passages (prochaines 24 heures)

TLE

FraisSource: CelesTrak SupGP

Époque: Sep 14, 2026, 22:13 UTC

1 57527C 23115G   26257.92618056  .00032643  00000+0  11702-2 0  2574
2 57527  42.9993  13.1563 0002501 300.0921 263.8989 15.27896322    17

Suivez STARLINK-30250 en temps réel avec AllMySat

Download on the App Store